Tracking 32938 objects as of 12-Jan-2026
HD Live streaming from Space Station
objects crossing your sky now

STARLINK-36216

Track STARLINK-36216 now!
10-day predictions
STARLINK-36216 is classified as:


NORAD ID: 67217
Int'l Code: 2025-304AB
Perigee: 414.2 km
Apogee: 418.9 km
Inclination: 70.0 °
Period: 92.8 minutes
Semi major axis: 6787 km
RCS: Unknown
Launch date: December 17, 2025
Source: United States (US)
Launch site: AIR FORCE WESTERN TEST RANGE (AFWTR)
Your satellite tracking list
Your tracking list is empty




NASA's NSSDC Master Catalog

Two Line Element Set (TLE):
1 67217U 25304AB  26012.21483368  .00052691  00000-0  85382-3 0  9995
2 67217  69.9998 322.1128 0003436 264.4314  95.6481 15.52508755  5296
Source of the keplerian elements: AFSPC